Zurück zum Katalog

SCOUT G-1 DEB

AktivPO
NORAD 21529·DEBRIS·🇺🇸 United States

Gestartet Jun 29, 1991 von Vandenberg Space Force Base

Loading…

Nächste Überflüge (nächste 24 Stunden)

TLE

AktuellSource: Space-Track

Epoche: Sep 14, 2026, 12:45 UTC

1 21529U 91045C   26257.53164662  .00000489  00000-0  15123-3 0  9999
2 21529  89.5536 292.5873 0049693 200.8813 159.0360 14.39230998838412

Verfolge SCOUT G-1 DEB in Echtzeit mit AllMySat

Download on the App Store